• In Uzbekistan
  • List of Countries
  • For 7 days
  • Water Temperature
  • Satellite Maps
  • Weather Map
  • Weather Widgets
  • user-avatar
    Login

    Hourly Weather Lubango

    Today, 22 June, Friday

    Time Temperature Precipitation Wind Pressure Humidity
    00:00 +12°C° 0 mm 1 mps 610 mmHg 55%
    01:00 +11°C° 0 mm 1 mps 610 mmHg 52%
    02:00 +11°C° 0 mm 1 mps 610 mmHg 50%
    03:00 +11°C° 0 mm 1 mps 610 mmHg 47%
    04:00 +10°C° 0 mm 2 mps 610 mmHg 45%
    05:00 +10°C° 0 mm 2 mps 610 mmHg 44%
    06:00 +10°C° 0 mm 2 mps 610 mmHg 44%
    07:00 +10°C° 0 mm 2 mps 610 mmHg 44%
    08:00 +14°C° 0 mm 2 mps 612 mmHg 37%
    09:00 +18°C° 0 mm 3 mps 613 mmHg 30%
    10:00 +22°C° 0 mm 3 mps 615 mmHg 23%
    11:00 +24°C° 0 mm 3 mps 615 mmHg 21%
    12:00 +25°C° 0 mm 2 mps 615 mmHg 19%
    13:00 +26°C° 0 mm 2 mps 614 mmHg 17%
    14:00 +26°C° 0 mm 2 mps 614 mmHg 17%
    15:00 +26°C° 0 mm 2 mps 614 mmHg 18%
    16:00 +26°C° 0 mm 1 mps 613 mmHg 18%
    17:00 +22°C° 0 mm 1 mps 612 mmHg 26%
    18:00 +19°C° 0 mm 1 mps 611 mmHg 33%
    19:00 +15°C° 0 mm 1 mps 610 mmHg 41%
    20:00 +14°C° 0 mm 1 mps 610 mmHg 45%
    21:00 +13°C° 0 mm 1 mps 610 mmHg 48%
    22:00 +12°C° 0 mm 1 mps 610 mmHg 52%
    23:00 +12°C° 0 mm 1 mps 610 mmHg 52%

    Tomorrow, 23 June, Saturday

    Time Temperature Precipitation Wind Pressure Humidity
    00:00 +12°C° 0 mm 1 mps 610 mmHg 52%
    01:00 +12°C° 0 mm 1 mps 610 mmHg 52%
    02:00 +12°C° 0 mm 1 mps 610 mmHg 50%
    03:00 +11°C° 0 mm 1 mps 609 mmHg 49%
    04:00 +11°C° 0 mm 1 mps 609 mmHg 48%
    05:00 +11°C° 0 mm 1 mps 609 mmHg 47%
    06:00 +11°C° 0 mm 1 mps 609 mmHg 45%
    07:00 +10°C° 0 mm 2 mps 610 mmHg 44%
    08:00 +15°C° 0 mm 2 mps 611 mmHg 36%
    09:00 +18°C° 0 mm 3 mps 613 mmHg 28%
    10:00 +22°C° 0 mm 3 mps 614 mmHg 20%
    11:00 +24°C° 0 mm 3 mps 614 mmHg 18%
    12:00 +25°C° 0 mm 3 mps 614 mmHg 17%
    13:00 +27°C° 0 mm 2 mps 614 mmHg 15%
    14:00 +26°C° 0 mm 2 mps 613 mmHg 15%
    15:00 +26°C° 0 mm 2 mps 613 mmHg 16%
    16:00 +26°C° 0 mm 2 mps 612 mmHg 16%
    17:00 +23°C° 0 mm 1 mps 611 mmHg 22%
    18:00 +20°C° 0 mm 1 mps 610 mmHg 28%
    19:00 +15°C° 0 mm 1 mps 609 mmHg 34%
    20:00 +15°C° 0 mm 1 mps 609 mmHg 36%
    21:00 +14°C° 0 mm 1 mps 609 mmHg 37%
    22:00 +13°C° 0 mm 1 mps 610 mmHg 38%
    23:00 +13°C° 0 mm 1 mps 609 mmHg 38%

    Day after tomorrow, 24 June, Sunday

    Time Temperature Precipitation Wind Pressure Humidity
    00:00 +13°C° 0 mm 1 mps 609 mmHg 37%
    01:00 +12°C° 0 mm 1 mps 609 mmHg 36%
    02:00 +12°C° 0 mm 1 mps 609 mmHg 36%
    03:00 +12°C° 0 mm 2 mps 608 mmHg 36%
    04:00 +10°C° 0 mm 2 mps 608 mmHg 37%
    05:00 +10°C° 0 mm 2 mps 608 mmHg 38%
    06:00 +10°C° 0 mm 2 mps 608 mmHg 39%
    07:00 +10°C° 0 mm 2 mps 609 mmHg 40%
    08:00 +14°C° 0 mm 3 mps 610 mmHg 34%
    09:00 +19°C° 0 mm 3 mps 612 mmHg 28%
    10:00 +22°C° 0 mm 4 mps 613 mmHg 23%
    11:00 +24°C° 0 mm 3 mps 613 mmHg 21%
    12:00 +26°C° 0 mm 3 mps 613 mmHg 19%
    13:00 +27°C° 0 mm 2 mps 613 mmHg 17%
    14:00 +26°C° 0 mm 2 mps 613 mmHg 17%
    15:00 +26°C° 0 mm 2 mps 612 mmHg 17%
    16:00 +26°C° 0 mm 2 mps 611 mmHg 18%
    17:00 +23°C° 0 mm 2 mps 611 mmHg 24%
    18:00 +20°C° 0 mm 1 mps 610 mmHg 30%
    19:00 +16°C° 0 mm 1 mps 609 mmHg 36%
    20:00 +15°C° 0 mm 1 mps 609 mmHg 40%
    21:00 +14°C° 0 mm 1 mps 609 mmHg 43%
    22:00 +13°C° 0 mm 1 mps 609 mmHg 47%
    23:00 +13°C° 0 mm 1 mps 609 mmHg 46%

    25 June, Monday

    Time Temperature Precipitation Wind Pressure Humidity
    00:00 +12°C° 0 mm 1 mps 609 mmHg 46%
    01:00 +12°C° 0 mm 1 mps 609 mmHg 46%
    02:00 +12°C° 0 mm 1 mps 608 mmHg 44%
    03:00 +11°C° 0 mm 1 mps 608 mmHg 42%
    04:00 +11°C° 0 mm 1 mps 608 mmHg 40%
    05:00 +10°C° 0 mm 2 mps 608 mmHg 39%
    06:00 +10°C° 0 mm 2 mps 608 mmHg 39%
    07:00 +10°C° 0 mm 2 mps 609 mmHg 38%
    08:00 +15°C° 0 mm 2 mps 610 mmHg 32%
    09:00 +18°C° 0 mm 3 mps 612 mmHg 26%
    10:00 +22°C° 0 mm 3 mps 613 mmHg 20%
    11:00 +25°C° 0 mm 3 mps 613 mmHg 18%
    12:00 +26°C° 0 mm 3 mps 613 mmHg 17%
    13:00 +27°C° 0 mm 2 mps 613 mmHg 16%
    14:00 +27°C° 0 mm 2 mps 612 mmHg 17%
    15:00 +26°C° 0 mm 2 mps 612 mmHg 17%
    16:00 +26°C° 0 mm 2 mps 611 mmHg 18%
    17:00 +23°C° 0 mm 2 mps 610 mmHg 25%
    18:00 +19°C° 0 mm 1 mps 610 mmHg 33%
    19:00 +15°C° 0 mm 1 mps 609 mmHg 41%
    20:00 +14°C° 0 mm 1 mps 609 mmHg 44%
    21:00 +13°C° 0 mm 1 mps 609 mmHg 48%
    22:00 +12°C° 0 mm 1 mps 609 mmHg 52%
    23:00 +12°C° 0 mm 1 mps 609 mmHg 51%

    26 June, Tuesday

    Time Temperature Precipitation Wind Pressure Humidity
    00:00 +12°C° 0 mm 1 mps 609 mmHg 50%
    01:00 +12°C° 0 mm 1 mps 609 mmHg 50%
    02:00 +12°C° 0 mm 1 mps 608 mmHg 48%
    03:00 +12°C° 0 mm 1 mps 608 mmHg 47%
    04:00 +10°C° 0 mm 2 mps 608 mmHg 45%
    05:00 +10°C° 0 mm 2 mps 608 mmHg 44%
    06:00 +10°C° 0 mm 2 mps 609 mmHg 42%
    07:00 +10°C° 0 mm 2 mps 609 mmHg 40%
    08:00 +15°C° 0 mm 2 mps 610 mmHg 33%
    09:00 +19°C° 0 mm 3 mps 612 mmHg 26%
    10:00 +22°C° 0 mm 3 mps 614 mmHg 19%
    11:00 +25°C° 0 mm 3 mps 613 mmHg 18%
    12:00 +26°C° 0 mm 3 mps 613 mmHg 17%
    13:00 +27°C° 0 mm 2 mps 613 mmHg 16%
    14:00 +27°C° 0 mm 2 mps 612 mmHg 16%
    15:00 +26°C° 0 mm 2 mps 612 mmHg 17%
    16:00 +26°C° 0 mm 1 mps 611 mmHg 17%
    17:00 +23°C° 0 mm 1 mps 611 mmHg 23%
    18:00 +20°C° 0 mm 1 mps 610 mmHg 29%
    19:00 +16°C° 0 mm 1 mps 609 mmHg 34%
    20:00 +15°C° 0 mm 1 mps 609 mmHg 37%
    21:00 +14°C° 0 mm 1 mps 609 mmHg 40%
    22:00 +14°C° 0 mm 1 mps 609 mmHg 44%
    23:00 +13°C° 0 mm 1 mps 609 mmHg 43%

    27 June, Wednesday

    Time Temperature Precipitation Wind Pressure Humidity
    00:00 +13°C° 0 mm 1 mps 609 mmHg 43%
    01:00 +12°C° 0 mm 1 mps 609 mmHg 42%
    02:00 +12°C° 0 mm 1 mps 608 mmHg 41%
    03:00 +12°C° 0 mm 2 mps 608 mmHg 39%
    04:00 +12°C° 0 mm 2 mps 608 mmHg 38%
    05:00 +10°C° 0 mm 2 mps 608 mmHg 37%
    06:00 +10°C° 0 mm 2 mps 609 mmHg 36%
    07:00 +10°C° 0 mm 2 mps 609 mmHg 36%
    08:00 +14°C° 0 mm 3 mps 610 mmHg 30%
    09:00 +19°C° 0 mm 3 mps 612 mmHg 25%
    10:00 +22°C° 0 mm 4 mps 613 mmHg 19%
    11:00 +23°C° 0 mm 4 mps 613 mmHg 18%
    12:00 +26°C° 0 mm 3 mps 613 mmHg 17%
    13:00 +27°C° 0 mm 3 mps 613 mmHg 15%
    14:00 +27°C° 0 mm 2 mps 612 mmHg 16%
    15:00 +26°C° 0 mm 2 mps 612 mmHg 16%
    16:00 +26°C° 0 mm 2 mps 611 mmHg 16%
    17:00 +23°C° 0 mm 2 mps 611 mmHg 22%
    18:00 +20°C° 0 mm 1 mps 610 mmHg 28%
    19:00 +16°C° 0 mm 1 mps 609 mmHg 34%
    20:00 +15°C° 0 mm 1 mps 609 mmHg 37%
    21:00 +14°C° 0 mm 1 mps 609 mmHg 39%
    22:00 +13°C° 0 mm 1 mps 609 mmHg 42%
    23:00 +13°C° 0 mm 1 mps 609 mmHg 40%
    Show more